Location: Mactaquac Provincial Park
(45.9573°N, 66.8897°W)
Time: 21:54:46
(UTC-03:00)

CENTAUR R/B - Visible Passes

Search period start: 15 September 2014 00:00
Search period end: 25 September 2014 00:00
Orbit: 898 x 1291 km, 63.5° (Epoch: 05 August)

Date Brightness Start Highest point End Pass type
(mag) Time Alt. Az. Time Alt. Az. Time Alt. Az.
15 Sep 3.0 05:18:08 17° SSW 05:23:00 61° ESE 05:29:45 10° NE visible
16 Sep 3.7 04:32:02 23° SSE 04:35:09 37° ESE 04:41:17 10° NE visible
16 Sep 2.9 06:19:22 10° WSW 06:25:35 53° NW 06:32:28 10° NE visible
17 Sep 4.2 03:45:52 20° SE 03:47:30 22° ESE 03:52:24 10° ENE visible
17 Sep 2.6 05:33:05 23° SW 05:37:18 79° NW 05:44:18 10° NE visible
18 Sep 4.8 02:59:39 12° ESE 03:00:01 12° ESE 03:02:17 10° E visible
18 Sep 2.7 04:46:52 40° SSW 04:49:13 69° ESE 04:56:04 10° NE visible
18 Sep 3.5 06:34:33 10° W 06:40:27 35° NNW 06:46:54 10° NNE visible
19 Sep 3.3 04:00:35 41° SE 04:01:20 42° ESE 04:07:39 10° NE visible
19 Sep 3.0 05:47:48 21° WSW 05:51:55 49° NW 05:58:44 10° NNE visible
20 Sep 4.1 03:14:16 25° E 03:14:16 25° E 03:18:54 10° ENE visible
20 Sep 2.6 05:01:28 45° WSW 05:03:35 71° NW 05:10:35 10° NE visible
21 Sep 4.9 02:27:54 13° E 02:27:54 13° E 02:29:19 10° ENE visible
21 Sep 2.5 04:15:06 74° SSE 04:15:27 77° SE 04:22:22 10° NE visible
21 Sep 3.6 06:02:18 16° W 06:06:50 33° NNW 06:13:11 10° NNE visible
22 Sep 3.4 03:28:41 43° E 03:28:41 43° E 03:34:00 10° NE visible
22 Sep 3.2 05:15:53 33° W 05:18:16 45° NW 05:25:00 10° NNE visible
23 Sep 4.4 02:42:15 23° ENE 02:42:15 23° ENE 02:45:22 10° NE visible
23 Sep 2.6 04:29:27 63° WNW 04:29:53 65° NW 04:36:51 10° NE visible
23 Sep 4.1 06:16:41 10° WNW 06:22:01 24° NNW 06:27:46 10° NNE visible
24 Sep 5.1 01:55:47 11° ENE 01:55:47 11° ENE 01:56:05 10° ENE visible
24 Sep 3.0 03:42:58 61° NE 03:42:58 61° NE 03:48:39 10° NE visible
24 Sep 3.8 05:30:10 22° WNW 05:33:14 31° NNW 05:39:28 10° NNE visible
